Data supplied by UK-AIR on 1/1/2019
All Data GMT hour ending 
Status: R =Ratified P=Provisional,P*=As supplied
,,Wicken Fen,,,,,,,,,,,,,,,,,,,,,,,
Date,time,"Nitric oxide",status,unit,"Nitrogen dioxide",status,unit,"Nitrogen oxides as nitrogen dioxide",status,unit,"Ozone",status,unit,"Sulphur dioxide",status,unit
 
01-01-2016,01:00,0.29935,R,ugm-3,3.24360,R,ugm-3,3.70260,R,ugm-3,43.30203,R,ugm-3,,,
01-01-2016,02:00,0.34924,R,ugm-3,3.54386,R,ugm-3,4.07936,R,ugm-3,38.01310,R,ugm-3,,,
01-01-2016,03:00,0.37419,R,ugm-3,3.44872,R,ugm-3,4.02247,R,ugm-3,34.93124,R,ugm-3,,,
01-01-2016,04:00,0.41161,R,ugm-3,2.93808,R,ugm-3,3.56920,R,ugm-3,34.98811,R,ugm-3,,,
01-01-2016,05:00,0.37419,R,ugm-3,2.59909,R,ugm-3,3.17284,R,ugm-3,33.78920,R,ugm-3,,,
01-01-2016,06:00,0.22451,R,ugm-3,2.31843,R,ugm-3,2.66268,R,ugm-3,37.27119,R,ugm-3,,,
01-01-2016,07:00,0.26193,R,ugm-3,2.60148,R,ugm-3,3.00310,R,ugm-3,37.55658,R,ugm-3,,,
01-01-2016,08:00,0.56129,R,ugm-3,3.72842,R,ugm-3,4.58904,R,ugm-3,25.39878,R,ugm-3,,,
01-01-2016,09:00,0.52387,R,ugm-3,5.65526,R,ugm-3,6.45851,R,ugm-3,28.31000,R,ugm-3,,,
01-01-2016,10:00,1.34708,R,ugm-3,8.92612,R,ugm-3,10.99162,R,ugm-3,27.16846,R,ugm-3,,,
01-01-2016,11:00,1.38450,R,ugm-3,7.90484,R,ugm-3,10.02772,R,ugm-3,35.84427,R,ugm-3,,,
01-01-2016,12:00,0.74838,R,ugm-3,4.46138,R,ugm-3,5.60888,R,ugm-3,51.82633,R,ugm-3,,,
01-01-2016,13:00,0.86064,R,ugm-3,4.51589,R,ugm-3,5.83552,R,ugm-3,55.87810,R,ugm-3,,,
01-01-2016,14:00,0.82322,R,ugm-3,5.93353,R,ugm-3,7.19578,R,ugm-3,54.05204,R,ugm-3,,,
01-01-2016,15:00,0.48645,R,ugm-3,5.59932,R,ugm-3,6.34520,R,ugm-3,55.70747,R,ugm-3,,,
01-01-2016,16:00,0.37419,R,ugm-3,3.84604,R,ugm-3,4.41979,R,ugm-3,59.70236,R,ugm-3,,,
01-01-2016,17:00,0.41161,R,ugm-3,6.39444,R,ugm-3,7.02557,R,ugm-3,57.30553,R,ugm-3,,,
01-01-2016,18:00,0.41161,R,ugm-3,7.35739,R,ugm-3,7.98851,R,ugm-3,50.39891,R,ugm-3,,,
01-01-2016,19:00,0.26193,R,ugm-3,4.75400,R,ugm-3,5.15562,R,ugm-3,52.33973,R,ugm-3,,,
01-01-2016,20:00,0.33677,R,ugm-3,4.97919,R,ugm-3,5.49557,R,ugm-3,50.79855,R,ugm-3,,,
01-01-2016,21:00,0.29935,R,ugm-3,4.01673,R,ugm-3,4.47573,R,ugm-3,50.79855,R,ugm-3,,,
01-01-2016,22:00,0.33677,R,ugm-3,3.95935,R,ugm-3,4.47573,R,ugm-3,53.88091,R,ugm-3,,,
01-01-2016,23:00,0.33677,R,ugm-3,3.67630,R,ugm-3,4.19268,R,ugm-3,54.85082,R,ugm-3,,,
01-01-2016,24:00,0.29935,R,ugm-3,3.79105,R,ugm-3,4.25005,R,ugm-3,51.88321,R,ugm-3,,,
02-01-2016,01:00,0.44903,R,ugm-3,3.09188,R,ugm-3,3.78038,R,ugm-3,51.02007,R,ugm-3,,,
02-01-2016,02:00,0.19957,R,ugm-3,1.73591,R,ugm-3,2.04191,R,ugm-3,51.60930,R,ugm-3,,,
02-01-2016,03:00,0.29935,R,ugm-3,1.63901,R,ugm-3,2.09801,R,ugm-3,53.77663,R,ugm-3,,,
02-01-2016,04:00,0.37419,R,ugm-3,2.37437,R,ugm-3,2.94812,R,ugm-3,52.12319,R,ugm-3,,,
02-01-2016,05:00,0.26193,R,ugm-3,2.49055,R,ugm-3,2.89218,R,ugm-3,49.72786,R,ugm-3,,,
02-01-2016,06:00,0.37419,R,ugm-3,1.92158,R,ugm-3,2.49533,R,ugm-3,46.47786,R,ugm-3,,,
02-01-2016,07:00,0.26193,R,ugm-3,2.26344,R,ugm-3,2.66507,R,ugm-3,45.96397,R,ugm-3,,,
02-01-2016,08:00,0.29935,R,ugm-3,2.71623,R,ugm-3,3.17523,R,ugm-3,45.79283,R,ugm-3,,,
02-01-2016,09:00,0.26193,R,ugm-3,3.79488,R,ugm-3,4.19650,R,ugm-3,42.94098,R,ugm-3,,,
02-01-2016,10:00,0.37419,R,ugm-3,3.62228,R,ugm-3,4.19603,R,ugm-3,45.33632,R,ugm-3,,,
02-01-2016,11:00,0.59870,R,ugm-3,2.93760,R,ugm-3,3.85560,R,ugm-3,48.30193,R,ugm-3,,,
02-01-2016,12:00,0.44903,R,ugm-3,2.65694,R,ugm-3,3.34544,R,ugm-3,51.60980,R,ugm-3,,,
02-01-2016,13:00,0.56129,R,ugm-3,2.71145,R,ugm-3,3.57207,R,ugm-3,54.57541,R,ugm-3,,,
02-01-2016,14:00,0.37419,R,ugm-3,2.71527,R,ugm-3,3.28902,R,ugm-3,58.22455,R,ugm-3,,,
02-01-2016,15:00,0.26193,R,ugm-3,3.28424,R,ugm-3,3.68587,R,ugm-3,58.96595,R,ugm-3,,,
02-01-2016,16:00,0.37419,R,ugm-3,2.60148,R,ugm-3,3.17523,R,ugm-3,61.87418,R,ugm-3,,,
02-01-2016,17:00,0.29935,R,ugm-3,2.31938,R,ugm-3,2.77838,R,ugm-3,63.98414,R,ugm-3,,,
02-01-2016,18:00,0.22451,R,ugm-3,2.15108,R,ugm-3,2.49533,R,ugm-3,63.07160,R,ugm-3,,,
02-01-2016,19:00,0.37419,R,ugm-3,2.43174,R,ugm-3,3.00549,R,ugm-3,60.33450,R,ugm-3,,,
02-01-2016,20:00,0.18710,R,ugm-3,4.36337,R,ugm-3,4.65024,R,ugm-3,54.68917,R,ugm-3,,,
02-01-2016,21:00,0.33677,R,ugm-3,4.98398,R,ugm-3,5.50035,R,ugm-3,48.13080,R,ugm-3,,,
02-01-2016,22:00,0.29935,R,ugm-3,5.15467,R,ugm-3,5.61367,R,ugm-3,37.23876,R,ugm-3,,,
02-01-2016,23:00,0.37419,R,ugm-3,3.96270,R,ugm-3,4.53645,R,ugm-3,32.61922,R,ugm-3,,,
02-01-2016,24:00,0.26193,R,ugm-3,5.32583,R,ugm-3,5.72746,R,ugm-3,38.94958,R,ugm-3,,,
03-01-2016,01:00,0.39914,R,ugm-3,3.24679,R,ugm-3,3.85879,R,ugm-3,41.85914,R,ugm-3,,,
03-01-2016,02:00,0.39914,R,ugm-3,3.62610,R,ugm-3,4.23810,R,ugm-3,42.04940,R,ugm-3,,,
03-01-2016,03:00,0.26193,R,ugm-3,4.70618,R,ugm-3,5.10781,R,ugm-3,41.65076,R,ugm-3,,,
03-01-2016,04:00,0.41161,R,ugm-3,4.98780,R,ugm-3,5.61893,R,ugm-3,35.15475,R,ugm-3,,,
03-01-2016,05:00,0.18710,R,ugm-3,1.24599,R,ugm-3,1.53287,R,ugm-3,58.62968,R,ugm-3,,,
03-01-2016,06:00,0.11226,R,ugm-3,0.28209,R,ugm-3,0.45422,R,ugm-3,64.95405,R,ugm-3,,,
03-01-2016,07:00,0.29935,R,ugm-3,0.27875,R,ugm-3,0.73775,R,ugm-3,61.02252,R,ugm-3,,,
03-01-2016,08:00,0.22451,R,ugm-3,1.35835,R,ugm-3,1.70260,R,ugm-3,60.62388,R,ugm-3,,,
03-01-2016,09:00,0.33677,R,ugm-3,3.96700,R,ugm-3,4.48338,R,ugm-3,57.71864,R,ugm-3,,,
03-01-2016,10:00,0.41161,R,ugm-3,3.28520,R,ugm-3,3.91632,R,ugm-3,62.33320,R,ugm-3,,,
03-01-2016,11:00,0.56129,R,ugm-3,3.68013,R,ugm-3,4.54075,R,ugm-3,62.33320,R,ugm-3,,,
03-01-2016,12:00,0.44903,R,ugm-3,2.20559,R,ugm-3,2.89409,R,ugm-3,64.89717,R,ugm-3,,,
03-01-2016,13:00,0.33677,R,ugm-3,1.58307,R,ugm-3,2.09945,R,ugm-3,67.74603,R,ugm-3,,,
03-01-2016,14:00,0.33677,R,ugm-3,1.18623,R,ugm-3,1.70260,R,ugm-3,67.85979,R,ugm-3,,,
03-01-2016,15:00,0.26193,R,ugm-3,1.07435,R,ugm-3,1.47597,R,ugm-3,66.66337,R,ugm-3,,,
03-01-2016,16:00,0.18710,R,ugm-3,1.86995,R,ugm-3,2.15682,R,ugm-3,64.09889,R,ugm-3,,,
03-01-2016,17:00,0.29935,R,ugm-3,3.11642,R,ugm-3,3.57542,R,ugm-3,60.16836,R,ugm-3,,,
03-01-2016,18:00,0.33677,R,ugm-3,4.08080,R,ugm-3,4.59717,R,ugm-3,56.69235,R,ugm-3,,,
03-01-2016,19:00,0.44903,R,ugm-3,6.97298,R,ugm-3,7.66148,R,ugm-3,55.04041,R,ugm-3,,,
03-01-2016,20:00,0.52387,R,ugm-3,10.43412,R,ugm-3,11.23737,R,ugm-3,49.22793,R,ugm-3,,,
03-01-2016,21:00,0.33677,R,ugm-3,9.07529,R,ugm-3,9.59167,R,ugm-3,43.81559,R,ugm-3,,,
03-01-2016,22:00,0.37419,R,ugm-3,7.08773,R,ugm-3,7.66148,R,ugm-3,40.73922,R,ugm-3,,,
03-01-2016,23:00,0.48645,R,ugm-3,8.16446,R,ugm-3,8.91034,R,ugm-3,39.71343,R,ugm-3,,,
03-01-2016,24:00,0.29935,R,ugm-3,7.25937,R,ugm-3,7.71837,R,ugm-3,41.53650,R,ugm-3,,,
04-01-2016,01:00,0.59995,R,ugm-3,7.10813,R,ugm-3,8.02804,R,ugm-3,46.37674,R,ugm-3,,,
04-01-2016,02:00,0.59995,R,ugm-3,17.02954,R,ugm-3,17.94945,R,ugm-3,39.73489,R,ugm-3,,,
04-01-2016,03:00,0.48738,R,ugm-3,18.90554,R,ugm-3,19.65285,R,ugm-3,32.39221,R,ugm-3,,,
04-01-2016,04:00,0.44996,R,ugm-3,20.61053,R,ugm-3,21.30047,R,ugm-3,30.79764,R,ugm-3,,,
04-01-2016,05:00,0.56253,R,ugm-3,14.41690,R,ugm-3,15.27944,R,ugm-3,36.49038,R,ugm-3,,,
04-01-2016,06:00,0.45028,R,ugm-3,9.93113,R,ugm-3,10.62155,R,ugm-3,43.89093,R,ugm-3,,,
04-01-2016,07:00,0.29966,R,ugm-3,9.53716,R,ugm-3,9.99664,R,ugm-3,46.50979,R,ugm-3,,,
04-01-2016,08:00,8.13333,R,ugm-3,19.22397,R,ugm-3,31.69491,R,ugm-3,39.05186,R,ugm-3,,,
04-01-2016,09:00,5.54706,R,ugm-3,18.64592,R,ugm-3,27.15128,R,ugm-3,39.27987,R,ugm-3,,,
04-01-2016,10:00,1.83665,R,ugm-3,14.79223,R,ugm-3,17.60839,R,ugm-3,45.82676,R,ugm-3,,,
04-01-2016,11:00,2.24888,R,ugm-3,17.73844,R,ugm-3,21.18668,R,ugm-3,46.85105,R,ugm-3,,,
04-01-2016,12:00,2.77337,R,ugm-3,17.50224,R,ugm-3,21.75469,R,ugm-3,47.19282,R,ugm-3,,,
04-01-2016,13:00,1.87438,R,ugm-3,15.87040,R,ugm-3,18.74441,R,ugm-3,52.77180,R,ugm-3,,,
04-01-2016,14:00,1.87407,R,ugm-3,17.63182,R,ugm-3,20.50535,R,ugm-3,47.93272,R,ugm-3,,,
04-01-2016,15:00,1.98664,R,ugm-3,18.48192,R,ugm-3,21.52806,R,ugm-3,42.80976,R,ugm-3,,,
04-01-2016,16:00,0.86188,R,ugm-3,18.44511,R,ugm-3,19.76664,R,ugm-3,41.72759,R,ugm-3,,,
04-01-2016,17:00,0.82478,R,ugm-3,16.11664,R,ugm-3,17.38128,R,ugm-3,38.93810,R,ugm-3,,,
04-01-2016,18:00,0.74963,R,ugm-3,19.29904,R,ugm-3,20.44845,R,ugm-3,36.49088,R,ugm-3,,,
04-01-2016,19:00,0.67479,R,ugm-3,25.15081,R,ugm-3,26.18547,R,ugm-3,30.62651,R,ugm-3,,,
04-01-2016,20:00,0.67479,R,ugm-3,27.59307,R,ugm-3,28.62773,R,ugm-3,24.42238,R,ugm-3,,,
04-01-2016,21:00,0.63737,R,ugm-3,26.62822,R,ugm-3,27.60550,R,ugm-3,22.99895,R,ugm-3,,,
04-01-2016,22:00,0.52480,R,ugm-3,23.96076,R,ugm-3,24.76544,R,ugm-3,29.20408,R,ugm-3,,,
04-01-2016,23:00,0.52511,R,ugm-3,17.14413,R,ugm-3,17.94929,R,ugm-3,40.07715,R,ugm-3,,,
04-01-2016,24:00,0.26193,R,ugm-3,7.20965,R,ugm-3,7.61127,R,ugm-3,53.68233,R,ugm-3,,,
05-01-2016,01:00,0.35049,R,ugm-3,4.46569,R,ugm-3,5.00310,R,ugm-3,59.60757,R,ugm-3,,,
05-01-2016,02:00,0.35008,R,ugm-3,3.55661,R,ugm-3,4.09339,R,ugm-3,63.47523,R,ugm-3,,,
05-01-2016,03:00,0.22545,R,ugm-3,2.89505,R,ugm-3,3.24073,R,ugm-3,63.70274,R,ugm-3,,,
05-01-2016,04:00,0.26287,R,ugm-3,1.81401,R,ugm-3,2.21707,R,ugm-3,63.93025,R,ugm-3,,,
05-01-2016,05:00,0.26287,R,ugm-3,2.32608,R,ugm-3,2.72914,R,ugm-3,61.71203,R,ugm-3,,,
05-01-2016,06:00,0.33771,R,ugm-3,3.06383,R,ugm-3,3.58163,R,ugm-3,56.82057,R,ugm-3,,,
05-01-2016,07:00,0.45028,R,ugm-3,4.93760,R,ugm-3,5.62801,R,ugm-3,53.74919,R,ugm-3,,,
05-01-2016,08:00,2.66330,R,ugm-3,13.19864,R,ugm-3,17.28231,R,ugm-3,42.99935,R,ugm-3,,,
05-01-2016,09:00,2.62557,R,ugm-3,13.76809,R,ugm-3,17.79390,R,ugm-3,37.88038,R,ugm-3,,,
05-01-2016,10:00,1.57534,R,ugm-3,12.36479,R,ugm-3,14.78028,R,ugm-3,39.92797,R,ugm-3,,,
05-01-2016,11:00,2.73845,R,ugm-3,15.13027,R,ugm-3,19.32916,R,ugm-3,34.24023,R,ugm-3,,,
05-01-2016,12:00,2.17560,R,ugm-3,12.92276,R,ugm-3,16.25864,R,ugm-3,43.11311,R,ugm-3,,,
05-01-2016,13:00,2.92585,R,ugm-3,14.95623,R,ugm-3,19.44248,R,ugm-3,40.38299,R,ugm-3,,,
05-01-2016,14:00,3.48839,R,ugm-3,16.08365,R,ugm-3,21.43243,R,ugm-3,40.95176,R,ugm-3,,,
05-01-2016,15:00,2.06303,R,ugm-3,16.96101,R,ugm-3,20.12428,R,ugm-3,32.93204,R,ugm-3,,,
05-01-2016,16:00,2.06272,R,ugm-3,21.68058,R,ugm-3,24.84338,R,ugm-3,23.09225,R,ugm-3,,,
05-01-2016,17:00,1.87563,R,ugm-3,28.27727,R,ugm-3,31.15319,R,ugm-3,11.26174,R,ugm-3,,,
05-01-2016,18:00,2.06335,R,ugm-3,32.99206,R,ugm-3,36.15581,R,ugm-3,4.55020,R,ugm-3,,,
05-01-2016,19:00,8.70304,R,ugm-3,34.18163,R,ugm-3,47.52610,R,ugm-3,2.55949,R,ugm-3,,,
05-01-2016,20:00,17.44349,R,ugm-3,37.20912,R,ugm-3,63.95543,R,ugm-3,2.10447,R,ugm-3,,,
05-01-2016,21:00,13.24196,R,ugm-3,33.13358,R,ugm-3,53.43764,R,ugm-3,1.99071,R,ugm-3,,,
05-01-2016,22:00,7.23995,R,ugm-3,29.37552,R,ugm-3,40.47663,R,ugm-3,1.76320,R,ugm-3,,,
05-01-2016,23:00,4.87632,R,ugm-3,27.65571,R,ugm-3,35.13263,R,ugm-3,3.24202,R,ugm-3,,,
05-01-2016,24:00,1.91305,R,ugm-3,22.98968,R,ugm-3,25.92298,R,ugm-3,4.43644,R,ugm-3,,,
06-01-2016,01:00,1.85183,R,ugm-3,21.51244,R,ugm-3,24.35186,R,ugm-3,4.09119,R,ugm-3,,,
06-01-2016,02:00,3.25379,R,ugm-3,20.19728,R,ugm-3,25.18635,R,ugm-3,2.27260,R,ugm-3,,,
06-01-2016,03:00,2.06491,R,ugm-3,18.68226,R,ugm-3,21.84840,R,ugm-3,3.23952,R,ugm-3,,,
06-01-2016,04:00,1.38918,R,ugm-3,17.04420,R,ugm-3,19.17425,R,ugm-3,4.14856,R,ugm-3,,,
06-01-2016,05:00,3.45409,R,ugm-3,16.55221,R,ugm-3,21.84840,R,ugm-3,3.29590,R,ugm-3,,,
06-01-2016,06:00,4.31753,R,ugm-3,17.39036,R,ugm-3,24.01048,R,ugm-3,1.59157,R,ugm-3,,,
06-01-2016,07:00,3.00350,R,ugm-3,13.65860,R,ugm-3,18.26390,R,ugm-3,2.04559,R,ugm-3,,,
06-01-2016,08:00,3.52924,R,ugm-3,14.33180,R,ugm-3,19.74322,R,ugm-3,1.76220,R,ugm-3,,,
06-01-2016,09:00,12.57746,R,ugm-3,15.76330,R,ugm-3,35.04848,R,ugm-3,2.21623,R,ugm-3,,,
06-01-2016,10:00,9.38593,R,ugm-3,18.49483,R,ugm-3,32.88639,R,ugm-3,3.52341,R,ugm-3,,,
06-01-2016,11:00,12.72745,R,ugm-3,18.15058,R,ugm-3,37.66573,R,ugm-3,5.11448,R,ugm-3,,,
06-01-2016,12:00,7.43360,R,ugm-3,15.74179,R,ugm-3,27.13981,R,ugm-3,10.51285,R,ugm-3,,,
06-01-2016,13:00,3.86663,R,ugm-3,16.20413,R,ugm-3,22.13288,R,ugm-3,18.07106,R,ugm-3,,,
06-01-2016,14:00,1.38949,R,ugm-3,11.58162,R,ugm-3,13.71215,R,ugm-3,28.69817,R,ugm-3,,,
06-01-2016,15:00,0.86344,R,ugm-3,10.62442,R,ugm-3,11.94834,R,ugm-3,34.55106,R,ugm-3,,,
06-01-2016,16:00,4.16754,R,ugm-3,16.08413,R,ugm-3,22.47427,R,ugm-3,34.15291,R,ugm-3,,,
06-01-2016,17:00,0.56347,R,ugm-3,9.26367,R,ugm-3,10.12764,R,ugm-3,37.05167,R,ugm-3,,,
06-01-2016,18:00,0.71377,R,ugm-3,11.30909,R,ugm-3,12.40352,R,ugm-3,34.26717,R,ugm-3,,,
06-01-2016,19:00,0.67604,R,ugm-3,20.64113,R,ugm-3,21.67771,R,ugm-3,20.11666,R,ugm-3,,,
06-01-2016,20:00,1.01374,R,ugm-3,25.92681,R,ugm-3,27.48119,R,ugm-3,12.21768,R,ugm-3,,,
06-01-2016,21:00,0.82602,R,ugm-3,23.48359,R,ugm-3,24.75014,R,ugm-3,12.10392,R,ugm-3,,,
06-01-2016,22:00,0.63862,R,ugm-3,25.02267,R,ugm-3,26.00187,R,ugm-3,12.61582,R,ugm-3,,,
06-01-2016,23:00,1.57721,R,ugm-3,38.77498,R,ugm-3,41.19334,R,ugm-3,4.77322,R,ugm-3,,,
06-01-2016,24:00,0.67604,R,ugm-3,24.90840,R,ugm-3,25.94498,R,ugm-3,17.10515,R,ugm-3,,,
07-01-2016,01:00,0.65109,R,ugm-3,13.87073,R,ugm-3,14.86905,R,ugm-3,29.44855,R,ugm-3,,,
07-01-2016,02:00,0.60120,R,ugm-3,10.45755,R,ugm-3,11.37938,R,ugm-3,32.70420,R,ugm-3,,,
07-01-2016,03:00,0.45121,R,ugm-3,9.03752,R,ugm-3,9.72937,R,ugm-3,35.71305,R,ugm-3,,,
07-01-2016,04:00,0.48863,R,ugm-3,4.25770,R,ugm-3,5.00693,R,ugm-3,46.10366,R,ugm-3,,,
07-01-2016,05:00,0.33833,R,ugm-3,3.06574,R,ugm-3,3.58450,R,ugm-3,53.02974,R,ugm-3,,,
07-01-2016,06:00,0.30060,R,ugm-3,3.80635,R,ugm-3,4.26727,R,ugm-3,53.65489,R,ugm-3,,,
07-01-2016,07:00,0.33833,R,ugm-3,3.23643,R,ugm-3,3.75519,R,ugm-3,62.56869,R,ugm-3,,,
07-01-2016,08:00,1.65330,R,ugm-3,5.37365,R,ugm-3,7.90867,R,ugm-3,59.44642,R,ugm-3,,,
07-01-2016,09:00,0.82665,R,ugm-3,5.33253,R,ugm-3,6.60004,R,ugm-3,68.41709,R,ugm-3,,,
07-01-2016,10:00,1.08952,R,ugm-3,8.51397,R,ugm-3,10.18454,R,ugm-3,64.10188,R,ugm-3,,,
07-01-2016,11:00,1.01437,R,ugm-3,9.14127,R,ugm-3,10.69661,R,ugm-3,55.64211,R,ugm-3,,,
07-01-2016,12:00,2.96857,R,ugm-3,15.13457,R,ugm-3,19.68632,R,ugm-3,46.21742,R,ugm-3,,,
07-01-2016,13:00,0.78923,R,ugm-3,7.49509,R,ugm-3,8.70522,R,ugm-3,64.38577,R,ugm-3,,,
07-01-2016,14:00,1.20271,R,ugm-3,3.33349,R,ugm-3,5.17762,R,ugm-3,75.74131,R,ugm-3,,,
07-01-2016,15:00,1.69103,R,ugm-3,5.31579,R,ugm-3,7.90867,R,ugm-3,76.02519,R,ugm-3,,,
07-01-2016,16:00,1.16498,R,ugm-3,9.70689,R,ugm-3,11.49317,R,ugm-3,68.13370,R,ugm-3,,,
07-01-2016,17:00,0.41317,R,ugm-3,5.56824,R,ugm-3,6.20176,R,ugm-3,66.08960,R,ugm-3,,,
07-01-2016,18:00,0.30060,R,ugm-3,4.94429,R,ugm-3,5.40520,R,ugm-3,65.01043,R,ugm-3,,,
07-01-2016,19:00,0.41317,R,ugm-3,4.60100,R,ugm-3,5.23451,R,ugm-3,65.06730,R,ugm-3,,,
07-01-2016,20:00,0.48894,R,ugm-3,4.54171,R,ugm-3,5.29141,R,ugm-3,63.64786,R,ugm-3,,,
07-01-2016,21:00,0.41379,R,ugm-3,3.34831,R,ugm-3,3.98278,R,ugm-3,65.86259,R,ugm-3,,,
07-01-2016,22:00,0.30060,R,ugm-3,3.00980,R,ugm-3,3.47071,R,ugm-3,66.54312,R,ugm-3,,,
07-01-2016,23:00,0.41348,R,ugm-3,2.26775,R,ugm-3,2.90174,R,ugm-3,66.99765,R,ugm-3,,,
07-01-2016,24:00,0.26318,R,ugm-3,3.80683,R,ugm-3,4.21037,R,ugm-3,62.56869,R,ugm-3,,,
08-01-2016,01:00,0.40122,R,ugm-3,3.71280,R,ugm-3,4.32799,R,ugm-3,60.58546,R,ugm-3,,,
08-01-2016,02:00,0.40080,R,ugm-3,4.85201,R,ugm-3,5.46656,R,ugm-3,54.98819,R,ugm-3,,,
08-01-2016,03:00,0.26318,R,ugm-3,6.03107,R,ugm-3,6.43461,R,ugm-3,50.65785,R,ugm-3,,,
08-01-2016,04:00,0.30091,R,ugm-3,5.00501,R,ugm-3,5.46640,R,ugm-3,47.42482,R,ugm-3,,,
08-01-2016,05:00,0.45152,R,ugm-3,4.37532,R,ugm-3,5.06765,R,ugm-3,44.36042,R,ugm-3,,,
08-01-2016,06:00,0.48894,R,ugm-3,4.37532,R,ugm-3,5.12502,R,ugm-3,44.19079,R,ugm-3,,,
08-01-2016,07:00,0.45121,R,ugm-3,7.67917,R,ugm-3,8.37101,R,ugm-3,43.96377,R,ugm-3,,,
08-01-2016,08:00,1.31621,R,ugm-3,14.32463,R,ugm-3,16.34279,R,ugm-3,41.07101,R,ugm-3,,,
08-01-2016,09:00,1.99319,R,ugm-3,25.35927,R,ugm-3,28.41545,R,ugm-3,30.23585,R,ugm-3,,,
08-01-2016,10:00,5.64091,R,ugm-3,26.42884,R,ugm-3,35.07812,R,ugm-3,34.54756,R,ugm-3,,,
08-01-2016,11:00,8.01047,R,ugm-3,33.33009,R,ugm-3,45.61265,R,ugm-3,31.59742,R,ugm-3,,,
08-01-2016,12:00,8.64940,R,ugm-3,32.63538,R,ugm-3,45.89761,R,ugm-3,34.37693,R,ugm-3,,,
08-01-2016,13:00,6.76941,R,ugm-3,30.84815,R,ugm-3,41.22776,R,ugm-3,35.56836,R,ugm-3,,,
08-01-2016,14:00,3.61000,R,ugm-3,17.01503,R,ugm-3,22.55029,R,ugm-3,53.09660,R,ugm-3,,,
08-01-2016,15:00,2.74500,R,ugm-3,19.99232,R,ugm-3,24.20125,R,ugm-3,51.45214,R,ugm-3,,,
08-01-2016,16:00,1.27879,R,ugm-3,19.50750,R,ugm-3,21.46829,R,ugm-3,47.36794,R,ugm-3,,,
08-01-2016,17:00,0.67666,R,ugm-3,20.25959,R,ugm-3,21.29712,R,ugm-3,44.75856,R,ugm-3,,,
08-01-2016,18:00,0.67666,R,ugm-3,22.48048,R,ugm-3,23.51801,R,ugm-3,43.05673,R,ugm-3,,,
08-01-2016,19:00,0.78954,R,ugm-3,28.62821,R,ugm-3,29.83883,R,ugm-3,35.11484,R,ugm-3,,,
08-01-2016,20:00,1.09045,R,ugm-3,31.58350,R,ugm-3,33.25551,R,ugm-3,27.91036,R,ugm-3,,,
08-01-2016,21:00,0.82758,R,ugm-3,32.21463,R,ugm-3,33.48357,R,ugm-3,23.93892,R,ugm-3,,,
08-01-2016,22:00,0.94046,R,ugm-3,35.23016,R,ugm-3,36.67219,R,ugm-3,20.47838,R,ugm-3,,,
08-01-2016,23:00,0.78985,R,ugm-3,31.70303,R,ugm-3,32.91413,R,ugm-3,21.67031,R,ugm-3,,,
08-01-2016,24:00,0.52636,R,ugm-3,24.47618,R,ugm-3,25.28325,R,ugm-3,31.54004,R,ugm-3,,,
09-01-2016,01:00,0.45152,R,ugm-3,17.69700,R,ugm-3,18.38933,R,ugm-3,39.22149,R,ugm-3,,,
09-01-2016,02:00,0.50142,R,ugm-3,10.40209,R,ugm-3,11.17091,R,ugm-3,47.38257,R,ugm-3,,,
09-01-2016,03:00,0.56378,R,ugm-3,7.17188,R,ugm-3,8.03633,R,ugm-3,52.48392,R,ugm-3,,,
09-01-2016,04:00,0.48863,R,ugm-3,6.65980,R,ugm-3,7.40903,R,ugm-3,53.84399,R,ugm-3,,,
09-01-2016,05:00,0.33833,R,ugm-3,5.97800,R,ugm-3,6.49676,R,ugm-3,54.12738,R,ugm-3,,,
09-01-2016,06:00,0.41379,R,ugm-3,4.72292,R,ugm-3,5.35739,R,ugm-3,53.90086,R,ugm-3,,,
09-01-2016,07:00,0.48863,R,ugm-3,4.26583,R,ugm-3,5.01505,R,ugm-3,55.48794,R,ugm-3,,,
09-01-2016,08:00,0.48894,R,ugm-3,5.51948,R,ugm-3,6.26918,R,ugm-3,52.42704,R,ugm-3,,,
09-01-2016,09:00,0.48894,R,ugm-3,5.86181,R,ugm-3,6.61151,R,ugm-3,54.69415,R,ugm-3,,,
09-01-2016,10:00,0.86500,R,ugm-3,7.39373,R,ugm-3,8.72004,R,ugm-3,54.92117,R,ugm-3,,,
09-01-2016,11:00,1.01561,R,ugm-3,7.33348,R,ugm-3,8.89073,R,ugm-3,59.85204,R,ugm-3,,,
09-01-2016,12:00,0.97757,R,ugm-3,7.16375,R,ugm-3,8.66267,R,ugm-3,61.38175,R,ugm-3,,,
09-01-2016,13:00,0.82696,R,ugm-3,6.48290,R,ugm-3,7.75088,R,ugm-3,60.75859,R,ugm-3,,,
09-01-2016,14:00,0.71439,R,ugm-3,5.34496,R,ugm-3,6.44034,R,ugm-3,64.55591,R,ugm-3,,,
09-01-2016,15:00,0.56378,R,ugm-3,5.74706,R,ugm-3,6.61151,R,ugm-3,62.17554,R,ugm-3,,,
09-01-2016,16:00,0.41379,R,ugm-3,6.71718,R,ugm-3,7.35165,R,ugm-3,63.36597,R,ugm-3,,,
09-01-2016,17:00,0.26349,R,ugm-3,5.92253,R,ugm-3,6.32655,R,ugm-3,65.12269,R,ugm-3,,,
09-01-2016,18:00,0.33833,R,ugm-3,4.32560,R,ugm-3,4.84436,R,ugm-3,67.55993,R,ugm-3,,,
09-01-2016,19:00,0.37606,R,ugm-3,4.09658,R,ugm-3,4.67319,R,ugm-3,66.37000,R,ugm-3,,,
09-01-2016,20:00,0.26349,R,ugm-3,2.90174,R,ugm-3,3.30576,R,ugm-3,68.80725,R,ugm-3,,,
09-01-2016,21:00,0.33833,R,ugm-3,2.55940,R,ugm-3,3.07817,R,ugm-3,69.71379,R,ugm-3,,,
09-01-2016,22:00,0.15061,R,ugm-3,1.47884,R,ugm-3,1.70978,R,ugm-3,77.30893,R,ugm-3,,,
09-01-2016,23:00,0.30122,R,ugm-3,0.50681,R,ugm-3,0.96868,R,ugm-3,85.35709,R,ugm-3,,,
09-01-2016,24:00,0.52636,R,ugm-3,2.49868,R,ugm-3,3.30576,R,ugm-3,80.65272,R,ugm-3,,,
10-01-2016,01:00,0.45152,R,ugm-3,3.33859,R,ugm-3,4.03091,R,ugm-3,77.69393,R,ugm-3,,,
10-01-2016,02:00,0.40122,R,ugm-3,2.04638,R,ugm-3,2.66156,R,ugm-3,76.22177,R,ugm-3,,,
10-01-2016,03:00,0.33833,R,ugm-3,1.64905,R,ugm-3,2.16782,R,ugm-3,75.20147,R,ugm-3,,,
10-01-2016,04:00,0.37606,R,ugm-3,1.36266,R,ugm-3,1.93928,R,ugm-3,73.89977,R,ugm-3,,,
10-01-2016,05:00,0.22545,R,ugm-3,0.45278,R,ugm-3,0.79847,R,ugm-3,75.76825,R,ugm-3,,,
10-01-2016,06:00,0.41379,R,ugm-3,0.33469,R,ugm-3,0.96916,R,ugm-3,75.03183,R,ugm-3,,,
10-01-2016,07:00,0.30091,R,ugm-3,0.39445,R,ugm-3,0.85584,R,ugm-3,73.67326,R,ugm-3,,,
10-01-2016,08:00,0.33833,R,ugm-3,2.04877,R,ugm-3,2.56753,R,ugm-3,69.53917,R,ugm-3,,,
10-01-2016,09:00,0.45152,R,ugm-3,1.75998,R,ugm-3,2.45230,R,ugm-3,69.65193,R,ugm-3,,,
10-01-2016,10:00,0.52698,R,ugm-3,2.10136,R,ugm-3,2.90939,R,ugm-3,68.23697,R,ugm-3,,,
10-01-2016,11:00,0.79079,R,ugm-3,3.29333,R,ugm-3,4.50585,R,ugm-3,65.80122,R,ugm-3,,,
10-01-2016,12:00,1.28004,R,ugm-3,4.36815,R,ugm-3,6.33085,R,ugm-3,66.59401,R,ugm-3,,,
10-01-2016,13:00,1.16685,R,ugm-3,4.99832,R,ugm-3,6.78746,R,ugm-3,66.70727,R,ugm-3,,,
10-01-2016,14:00,1.24231,R,ugm-3,5.68204,R,ugm-3,7.58689,R,ugm-3,68.12372,R,ugm-3,,,
10-01-2016,15:00,1.20458,R,ugm-3,8.93377,R,ugm-3,10.78076,R,ugm-3,59.23288,R,ugm-3,,,
10-01-2016,16:00,0.71533,R,ugm-3,7.40233,R,ugm-3,8.49915,R,ugm-3,52.55077,R,ugm-3,,,
10-01-2016,17:00,0.45152,R,ugm-3,9.63231,R,ugm-3,10.32463,R,ugm-3,53.79659,R,ugm-3,,,
10-01-2016,18:00,0.48925,R,ugm-3,6.20845,R,ugm-3,6.95863,R,ugm-3,58.94949,R,ugm-3,,,
10-01-2016,19:00,0.67791,R,ugm-3,11.56584,R,ugm-3,12.60529,R,ugm-3,47.45425,R,ugm-3,,,
10-01-2016,20:00,0.60245,R,ugm-3,19.49650,R,ugm-3,20.42024,R,ugm-3,44.84937,R,ugm-3,,,
10-01-2016,21:00,0.56472,R,ugm-3,19.83980,R,ugm-3,20.70568,R,ugm-3,42.41461,R,ugm-3,,,
10-01-2016,22:00,0.52698,R,ugm-3,15.84793,R,ugm-3,16.65596,R,ugm-3,45.64266,R,ugm-3,,,
10-01-2016,23:00,0.60245,R,ugm-3,19.38271,R,ugm-3,20.30645,R,ugm-3,41.67770,R,ugm-3,,,
10-01-2016,24:00,0.52698,R,ugm-3,14.99209,R,ugm-3,15.80012,R,ugm-3,44.96312,R,ugm-3,,,
11-01-2016,01:00,0.25154,R,ugm-3,8.97664,R,ugm-3,9.36233,R,ugm-3,56.04990,R,ugm-3,,,
11-01-2016,02:00,0.40163,R,ugm-3,6.31125,R,ugm-3,6.92708,R,ugm-3,56.95595,R,ugm-3,,,
11-01-2016,03:00,0.30154,R,ugm-3,4.04781,R,ugm-3,4.51015,R,ugm-3,62.46192,R,ugm-3,,,
11-01-2016,04:00,0.33895,R,ugm-3,2.67702,R,ugm-3,3.19674,R,ugm-3,67.95059,R,ugm-3,,,
11-01-2016,05:00,0.45183,R,ugm-3,3.41764,R,ugm-3,4.11044,R,ugm-3,62.34866,R,ugm-3,,,
11-01-2016,06:00,0.30154,R,ugm-3,2.79177,R,ugm-3,3.25412,R,ugm-3,64.32890,R,ugm-3,,,
11-01-2016,07:00,0.30185,R,ugm-3,3.01936,R,ugm-3,3.48218,R,ugm-3,69.87345,R,ugm-3,,,
11-01-2016,08:00,2.93833,R,ugm-3,8.11139,R,ugm-3,12.61676,R,ugm-3,70.09996,R,ugm-3,,,
11-01-2016,09:00,0.79079,R,ugm-3,7.23642,R,ugm-3,8.44895,R,ugm-3,66.59202,R,ugm-3,,,
11-01-2016,10:00,0.90398,R,ugm-3,12.14390,R,ugm-3,13.52998,R,ugm-3,60.76507,R,ugm-3,,,
11-01-2016,11:00,1.77054,R,ugm-3,14.18358,R,ugm-3,16.89837,R,ugm-3,55.27640,R,ugm-3,,,
11-01-2016,12:00,1.24293,R,ugm-3,10.53979,R,ugm-3,12.44559,R,ugm-3,61.55737,R,ugm-3,,,
11-01-2016,13:00,0.67791,R,ugm-3,7.58067,R,ugm-3,8.62012,R,ugm-3,61.95301,R,ugm-3,,,
11-01-2016,14:00,1.16779,R,ugm-3,12.70952,R,ugm-3,14.50010,R,ugm-3,54.76800,R,ugm-3,,,
11-01-2016,15:00,4.74598,R,ugm-3,23.15033,R,ugm-3,30.42740,R,ugm-3,39.71792,R,ugm-3,,,
11-01-2016,16:00,1.73281,R,ugm-3,13.09967,R,ugm-3,15.75661,R,ugm-3,52.78776,R,ugm-3,,,
11-01-2016,17:00,0.41442,R,ugm-3,12.09561,R,ugm-3,12.73103,R,ugm-3,50.75015,R,ugm-3,,,
11-01-2016,18:00,0.52698,R,ugm-3,11.52329,R,ugm-3,12.33132,R,ugm-3,48.31789,R,ugm-3,,,
11-01-2016,19:00,0.71564,R,ugm-3,23.67914,R,ugm-3,24.77644,R,ugm-3,33.04131,R,ugm-3,,,
11-01-2016,20:00,0.56472,R,ugm-3,25.85126,R,ugm-3,26.71715,R,ugm-3,25.29051,R,ugm-3,,,
11-01-2016,21:00,0.64018,R,ugm-3,19.28469,R,ugm-3,20.26628,R,ugm-3,28.34593,R,ugm-3,,,
11-01-2016,22:00,0.52698,R,ugm-3,15.80442,R,ugm-3,16.61245,R,ugm-3,26.42257,R,ugm-3,,,
11-01-2016,23:00,0.56472,R,ugm-3,12.66410,R,ugm-3,13.52998,R,ugm-3,29.81626,R,ugm-3,,,
11-01-2016,24:00,0.33895,R,ugm-3,12.15346,R,ugm-3,12.67318,R,ugm-3,33.21094,R,ugm-3,,,
12-01-2016,01:00,0.35215,R,ugm-3,9.36360,R,ugm-3,9.90356,R,ugm-3,40.09760,R,ugm-3,,,
12-01-2016,02:00,0.60286,R,ugm-3,4.86540,R,ugm-3,5.78978,R,ugm-3,45.29840,R,ugm-3,,,
12-01-2016,03:00,0.33958,R,ugm-3,2.73679,R,ugm-3,3.25747,R,ugm-3,47.99259,R,ugm-3,,,
12-01-2016,04:00,0.37731,R,ugm-3,2.85010,R,ugm-3,3.42863,R,ugm-3,47.03166,R,ugm-3,,,
12-01-2016,05:00,0.33958,R,ugm-3,3.47932,R,ugm-3,3.99999,R,ugm-3,47.08804,R,ugm-3,,,
12-01-2016,06:00,0.37731,R,ugm-3,5.53525,R,ugm-3,6.11378,R,ugm-3,42.73542,R,ugm-3,,,
12-01-2016,07:00,0.45277,R,ugm-3,5.07673,R,ugm-3,5.77097,R,ugm-3,48.38824,R,ugm-3,,,
12-01-2016,08:00,0.52792,R,ugm-3,5.53286,R,ugm-3,6.34233,R,ugm-3,50.64887,R,ugm-3,,,
12-01-2016,09:00,1.01780,R,ugm-3,10.78124,R,ugm-3,12.34184,R,ugm-3,45.90060,R,ugm-3,,,
12-01-2016,10:00,2.11137,R,ugm-3,10.81806,R,ugm-3,14.05544,R,ugm-3,46.01436,R,ugm-3,,,
12-01-2016,11:00,1.84725,R,ugm-3,11.10876,R,ugm-3,13.94117,R,ugm-3,49.80120,R,ugm-3,,,
12-01-2016,12:00,0.71595,R,ugm-3,4.32990,R,ugm-3,5.42768,R,ugm-3,56.30219,R,ugm-3,,,